Regional Weather Roundup
Issued by NWS

Home | Current Version | Previous Version | Text Only | Print | Product List | Glossary Off
Versions: 1 2 3 4 5 6 7 8 9 10 11 12 13 14 15 16 17 18 19 20 21 22 23 24 25 26 27 28 29 30 31 32 33 34 35 36 37 38 39 40 41 42 43 44 45 46 47 48 49 50

000
ASUS44 KMEG 060410
RWRTN
TENNESSEE HOURLY STATE WEATHER ROUNDUP
NATIONAL WEATHER SERVICE MEMPHIS TN
1000 PM CST THU MAR 05 2015

TNZ002-004-019-021-049-052-054-088>092-060500-
WEST TENNESSEE

CITY           SKY/WX    TMP DP  RH WIND       PRES   REMARKS
MEMPHIS INTL   PTCLDY    22  11  62 CALM      30.59R
NWS MEMPHIS      N/A     17 N/A N/A MISG        N/A
JACKSON        PTCLDY    19   6  57 NE9       30.58R WCI   8
DYERSBURG      PTCLDY    18  -2  41 N5        30.62R WCI  11
UNION CITY     CLEAR     16   7  67 NE8       30.60R WCI   5
PARIS          CLEAR      9   1  72 N5        30.59R WCI   0
LEXINGTON      CLEAR     18   9  68 N3        30.56R
SAVANNAH       CLEAR     21  10  63 N6        30.55S WCI  14
$$

TNZ008-025-027-028-033-062-065-066-060500-
NORTH MIDDLE TENNESSEE

CITY           SKY/WX    TMP DP  RH WIND       PRES   REMARKS
NASHVILLE      PTCLDY    17   7  64 N8        30.56R WCI   7
CLARKSVILLE    PTCLDY    11   3  70 N9        30.58R WCI  -2
SMYRNA         PTCLDY    17  10  74 CALM      30.57R
COOKEVILLE     PTCLDY    18  16  93 CALM      30.48S
CROSSVILLE     MOCLDY    16  10  77 NE13      30.42R WCI   2
$$

TNZ061-075-076-078-094-096-097-060500-
SOUTH MIDDLE TENNESSEE

CITY           SKY/WX    TMP DP  RH WIND       PRES   REMARKS
FAYETTEVILLE   PTCLDY    18  14  86 N8          N/A  WCI   7
TULLAHOMA      CLEAR     18  14  86 N7          N/A  WCI   8
WINCHESTER     CLOUDY    19  14  79 N14       30.47S WCI   6
MCMINNVILLE    MOCLDY    21  16  79 NE10      30.48S WCI  10
COLUMBIA         N/A     18  14  86 N5        30.53R WCI  11
SHELBYVILLE    CLOUDY    19  14  79 N7        30.52R WCI  10
$$

TNZ017-018-042-046-047-060500-
NORTHEAST TENNESSEE

CITY           SKY/WX    TMP DP  RH WIND       PRES   REMARKS
TRI CITIES     MOCLDY    22  16  78 N8        30.41F WCI  12
ELIZABETHTON   MOCLDY    19  14  79 N5        30.39S WCI  13
$$

TNZ012-013-036-069-073-074-060500-
CENTRAL EAST TENNESSEE

CITY           SKY/WX    TMP DP  RH WIND       PRES   REMARKS
KNOXVILLE      CLOUDY    22  17  81 N12       30.44S WCI  10
OAK RIDGE      PTCLDY    21  13  71 NE7       30.47S WCI  12
GATLINBURG     CLOUDY    23  19  86 N3        30.43R
MORRISTOWN     MOCLDY    21  18  86 NE7       30.42R WCI  13
$$

TNZ083-085-099-060500-
SOUTHEAST TENNESSEE

CITY           SKY/WX    TMP DP  RH WIND       PRES   REMARKS
CHATTANOOGA    PTCLDY    25  16  68 N13       30.45R WCI  14
$$

SKY/WX REPORTED AS FAIR MEANS FEW OR NO CLOUDS BELOW
12 THOUSAND FEET.



USA.gov is the U.S. government's official web portal to all federal, state and local government web resources and services.